Regional Weather Roundup
Issued by NWS

Home | Current Version | Previous Version | Graphics & Text | Print | Product List | Glossary On
Versions: 1 2 3 4 5 6 7 8 9 10 11 12 13 14 15 16 17 18 19 20 21 22 23 24 25 26 27 28 29 30 31 32 33 34 35 36 37 38 39 40 41 42 43 44 45 46 47 48 49 50
000
ASUS43 KFSD 170702
RWRSD

WEATHER ROUNDUP FOR SOUTH DAKOTA
NATIONAL WEATHER SERVICE SIOUX FALLS SD
100 AM CST TUE JAN 17 2017

NOTE: "FAIR" INDICATES FEW OR NO CLOUDS BELOW 12,000 FEET WITH NO
SIGNIFICANT WEATHER AND/OR OBSTRUCTIONS TO VISIBILITY.


SDZ001>005-009-010-012>017-170800-
NORTHWEST AND NORTH CENTRAL SOUTH DAKOTA

CITY           SKY/WX    TMP DP  RH WIND       PRES   REMARKS
BUFFALO          N/A     16   8  71 W5        29.95F WCI   9
FAITH            N/A     14  10  84 NW14      30.03F WCI  -1
MOBRIDGE       CLOUDY     9   4  80 NW5       30.02F WCI   1
$$

SDZ012>016-024>037-041>051-057-063-072>074-170800-
SOUTHWEST AND SOUTH CENTRAL SOUTH DAKOTA

CITY           SKY/WX    TMP DP  RH WIND       PRES   REMARKS
RAPID CTY ARPT CLOUDY    19  10  68 CALM      30.05F
PIERRE         CLEAR      8   5  87 W5        30.06S WCI   0
CUSTER         CLOUDY    24   5  44 CALM      30.00F
ELLSWORTH AFB  CLOUDY    21  12  68 W3        30.04F
PHILIP         CLOUDY    15  10  80 W9        30.08S WCI   3
PINE RIDGE     CLOUDY     5   3  91 E3        30.07F
SPEARFISH      FAIR      21  10  63 CALM      30.02F
WINNER         FAIR      18  13  80 W10       30.05F WCI   6
$$

SDZ004>011-016>023-039-040-170800-
NORTHEAST SOUTH DAKOTA

CITY           SKY/WX    TMP DP  RH WIND       PRES   REMARKS
ABERDEEN       CLEAR      0  -4  83 W3        30.04S
WATERTOWN      CLOUDY     1  -2  87 CALM      29.99F FOG
BROOKINGS      MIX PCPN  15  14  95 NW7       29.99R VSB 1/2 WCI   5
SISSETON         N/A      8   5  87 W3        30.01F
$$

SDZ017-020-022-023-036>040-048>070-170800-
SOUTHEAST SOUTH DAKOTA

CITY           SKY/WX    TMP DP  RH WIND       PRES   REMARKS
SIOUX FALLS    FOG       23  23 100 NW9       29.99S VSB 3/4 WCI  13
HURON          CLOUDY     2   0  91 NW7       30.05F WCI -11
CHAMBERLAIN    CLOUDY    12  10  90 W5        30.06F WCI   4
MITCHELL       CLOUDY    10   6  84 W8        30.07S WCI  -2
YANKTON        CLOUDY    18  10  73 CALM      30.04S
$$

ABBREVIATIONS USED IN REMARKS
   TC - TEMPERATURE IN CELSIUS
  WCI - WIND CHILL INDEX
   HX - HEAT INDEX
  VSB - VISIBILITY





USA.gov is the U.S. government's official web portal to all federal, state and local government web resources and services.